• In Uzbekistan
  • List of Countries
  • For 7 days
  • Water Temperature
  • Satellite Maps
  • Weather Map
  • Weather Widgets
  • user-avatar
    Login

    Hourly Weather Poti

    Today, 24 January, Wednesday

    Time Temperature Precipitation Wind Pressure Humidity
    00:00 +8°C° 0.9 mm 4 mps 762 mmHg 89%
    01:00 +7°C° 1.2 mm 5 mps 762 mmHg 90%
    02:00 +7°C° 1.2 mm 6 mps 763 mmHg 91%
    03:00 +7°C° 1.2 mm 6 mps 763 mmHg 91%
    04:00 +7°C° 0.8 mm 6 mps 764 mmHg 91%
    05:00 +7°C° 0.8 mm 6 mps 764 mmHg 91%
    06:00 +7°C° 0.8 mm 6 mps 765 mmHg 91%
    07:00 +5°C° 0.5 mm 6 mps 765 mmHg 91%
    08:00 +5°C° 0.5 mm 6 mps 766 mmHg 91%
    09:00 +5°C° 0.5 mm 6 mps 766 mmHg 91%
    10:00 +6°C° 0.3 mm 5 mps 766 mmHg 89%
    11:00 +6°C° 0.3 mm 5 mps 766 mmHg 87%
    12:00 +7°C° 0.3 mm 5 mps 767 mmHg 86%
    13:00 +7°C° 0.1 mm 5 mps 767 mmHg 84%
    14:00 +7°C° 0.1 mm 5 mps 767 mmHg 82%
    15:00 +7°C° 0.1 mm 5 mps 767 mmHg 81%
    16:00 +6°C° 0 mm 5 mps 767 mmHg 82%
    17:00 +6°C° 0 mm 4 mps 768 mmHg 84%
    18:00 +5°C° 0 mm 4 mps 768 mmHg 85%
    19:00 +5°C° 0 mm 4 mps 768 mmHg 86%
    20:00 +5°C° 0 mm 4 mps 769 mmHg 87%
    21:00 +5°C° 0 mm 4 mps 769 mmHg 87%
    22:00 +4°C° 0 mm 4 mps 769 mmHg 88%
    23:00 +4°C° 0 mm 4 mps 769 mmHg 88%

    Tomorrow, 25 January, Thursday

    Time Temperature Precipitation Wind Pressure Humidity
    00:00 +4°C° 0 mm 4 mps 769 mmHg 88%
    01:00 +4°C° 0 mm 3 mps 769 mmHg 89%
    02:00 +3°C° 0 mm 3 mps 769 mmHg 89%
    03:00 +3°C° 0 mm 3 mps 769 mmHg 89%
    04:00 +3°C° 0 mm 3 mps 769 mmHg 89%
    05:00 +3°C° 0 mm 3 mps 769 mmHg 89%
    06:00 +4°C° 0 mm 2 mps 769 mmHg 89%
    07:00 +4°C° 0.1 mm 2 mps 769 mmHg 87%
    08:00 +5°C° 0.1 mm 2 mps 769 mmHg 84%
    09:00 +5°C° 0.1 mm 2 mps 769 mmHg 82%
    10:00 +5°C° 0 mm 3 mps 768 mmHg 79%
    11:00 +7°C° 0 mm 3 mps 768 mmHg 76%
    12:00 +7°C° 0 mm 4 mps 768 mmHg 73%
    13:00 +8°C° 0 mm 3 mps 767 mmHg 74%
    14:00 +8°C° 0 mm 3 mps 767 mmHg 74%
    15:00 +8°C° 0 mm 3 mps 766 mmHg 74%
    16:00 +7°C° 0.1 mm 3 mps 766 mmHg 78%
    17:00 +7°C° 0.1 mm 3 mps 767 mmHg 81%
    18:00 +5°C° 0.1 mm 3 mps 767 mmHg 84%
    19:00 +5°C° 0.1 mm 3 mps 767 mmHg 85%
    20:00 +5°C° 0.1 mm 3 mps 767 mmHg 86%
    21:00 +5°C° 0.1 mm 2 mps 767 mmHg 87%
    22:00 +5°C° 0.1 mm 2 mps 767 mmHg 88%
    23:00 +5°C° 0.1 mm 2 mps 767 mmHg 89%

    Day after tomorrow, 26 January, Friday

    Time Temperature Precipitation Wind Pressure Humidity
    00:00 +5°C° 0.1 mm 2 mps 767 mmHg 90%
    01:00 +5°C° 0 mm 2 mps 767 mmHg 90%
    02:00 +6°C° 0 mm 1 mps 767 mmHg 90%
    03:00 +5°C° 0 mm 1 mps 767 mmHg 90%
    04:00 +5°C° 0 mm 1 mps 767 mmHg 90%
    05:00 +5°C° 0 mm 1 mps 766 mmHg 89%
    06:00 +5°C° 0 mm 1 mps 766 mmHg 89%
    07:00 +6°C° 0 mm 1 mps 766 mmHg 87%
    08:00 +6°C° 0 mm 1 mps 766 mmHg 85%
    09:00 +7°C° 0 mm 1 mps 766 mmHg 83%
    10:00 +8°C° 0 mm 1 mps 766 mmHg 79%
    11:00 +9°C° 0 mm 1 mps 765 mmHg 75%
    12:00 +10°C° 0 mm 1 mps 765 mmHg 72%
    13:00 +9°C° 0 mm 2 mps 765 mmHg 73%
    14:00 +9°C° 0 mm 2 mps 764 mmHg 74%
    15:00 +9°C° 0 mm 2 mps 764 mmHg 75%
    16:00 +8°C° 0 mm 2 mps 764 mmHg 79%
    17:00 +7°C° 0 mm 2 mps 765 mmHg 84%
    18:00 +7°C° 0 mm 2 mps 765 mmHg 88%
    19:00 +6°C° 0 mm 2 mps 766 mmHg 89%
    20:00 +6°C° 0 mm 2 mps 766 mmHg 90%
    21:00 +7°C° 0 mm 1 mps 766 mmHg 90%
    22:00 +7°C° 0 mm 1 mps 766 mmHg 90%
    23:00 +7°C° 0 mm 1 mps 767 mmHg 91%

    27 January, Saturday

    Time Temperature Precipitation Wind Pressure Humidity
    00:00 +7°C° 0 mm 1 mps 767 mmHg 91%
    01:00 +6°C° 0.1 mm 1 mps 767 mmHg 91%
    02:00 +6°C° 0.1 mm 1 mps 767 mmHg 90%
    03:00 +6°C° 0.1 mm 1 mps 767 mmHg 90%
    04:00 +6°C° 0.2 mm 1 mps 767 mmHg 90%
    05:00 +6°C° 0.2 mm 1 mps 767 mmHg 90%
    06:00 +5°C° 0.2 mm 2 mps 767 mmHg 90%
    07:00 +5°C° 0.1 mm 2 mps 768 mmHg 88%
    08:00 +6°C° 0.1 mm 2 mps 768 mmHg 86%
    09:00 +6°C° 0.1 mm 2 mps 768 mmHg 84%
    10:00 +7°C° 0.1 mm 2 mps 769 mmHg 79%
    11:00 +8°C° 0.1 mm 2 mps 769 mmHg 75%
    12:00 +9°C° 0.1 mm 2 mps 769 mmHg 71%
    13:00 +9°C° 0.1 mm 2 mps 769 mmHg 72%
    14:00 +9°C° 0.1 mm 2 mps 769 mmHg 72%
    15:00 +9°C° 0.1 mm 2 mps 769 mmHg 73%
    16:00 +8°C° 0.1 mm 3 mps 770 mmHg 78%
    17:00 +7°C° 0.1 mm 3 mps 770 mmHg 83%
    18:00 +7°C° 0.1 mm 3 mps 771 mmHg 88%
    19:00 +5°C° 0.1 mm 3 mps 771 mmHg 89%
    20:00 +6°C° 0.1 mm 2 mps 772 mmHg 91%
    21:00 +6°C° 0.1 mm 2 mps 772 mmHg 92%
    22:00 +6°C° 0.1 mm 2 mps 773 mmHg 92%
    23:00 +5°C° 0.1 mm 2 mps 773 mmHg 92%

    28 January, Sunday

    Time Temperature Precipitation Wind Pressure Humidity
    00:00 +5°C° 0.1 mm 2 mps 773 mmHg 93%
    01:00 +5°C° 0.1 mm 2 mps 773 mmHg 93%
    02:00 +5°C° 0.1 mm 2 mps 774 mmHg 93%
    03:00 +5°C° 0.1 mm 2 mps 774 mmHg 93%
    04:00 +4°C° 0.1 mm 2 mps 774 mmHg 93%
    05:00 +4°C° 0.1 mm 2 mps 774 mmHg 92%
    06:00 +4°C° 0.1 mm 2 mps 774 mmHg 92%
    07:00 +5°C° 0.1 mm 2 mps 775 mmHg 88%
    08:00 +5°C° 0.1 mm 2 mps 775 mmHg 85%
    09:00 +6°C° 0.1 mm 2 mps 775 mmHg 82%
    10:00 +7°C° 0 mm 2 mps 775 mmHg 77%
    11:00 +8°C° 0 mm 2 mps 775 mmHg 72%
    12:00 +9°C° 0 mm 2 mps 775 mmHg 68%
    13:00 +9°C° 0 mm 2 mps 774 mmHg 68%
    14:00 +9°C° 0 mm 2 mps 774 mmHg 68%
    15:00 +10°C° 0 mm 1 mps 774 mmHg 68%
    16:00 +8°C° 0 mm 2 mps 774 mmHg 73%
    17:00 +8°C° 0 mm 2 mps 775 mmHg 77%
    18:00 +7°C° 0 mm 2 mps 775 mmHg 82%
    19:00 +7°C° 0 mm 1 mps 775 mmHg 84%
    20:00 +7°C° 0 mm 1 mps 775 mmHg 85%
    21:00 +7°C° 0 mm 1 mps 775 mmHg 87%
    22:00 +6°C° 0 mm 1 mps 775 mmHg 87%
    23:00 +6°C° 0 mm 1 mps 775 mmHg 88%

    29 January, Monday

    Time Temperature Precipitation Wind Pressure Humidity
    00:00 +6°C° 0 mm 1 mps 775 mmHg 88%
    01:00 +6°C° 0 mm 1 mps 775 mmHg 88%
    02:00 +5°C° 0 mm 1 mps 775 mmHg 88%
    03:00 +4°C° 0 mm 2 mps 775 mmHg 87%
    04:00 +4°C° 0.2 mm 2 mps 775 mmHg 86%
    05:00 +4°C° 0.2 mm 2 mps 775 mmHg 85%
    06:00 +4°C° 0.2 mm 2 mps 775 mmHg 83%
    07:00 +4°C° 0.2 mm 2 mps 775 mmHg 81%
    08:00 +5°C° 0.2 mm 2 mps 775 mmHg 79%
    09:00 +6°C° 0.2 mm 2 mps 776 mmHg 76%
    10:00 +6°C° 0.2 mm 2 mps 775 mmHg 74%
    11:00 +7°C° 0.2 mm 2 mps 775 mmHg 71%
    12:00 +8°C° 0.2 mm 2 mps 775 mmHg 69%
    13:00 +8°C° 0.1 mm 2 mps 775 mmHg 70%
    14:00 +8°C° 0.1 mm 2 mps 774 mmHg 72%
    15:00 +8°C° 0.1 mm 2 mps 774 mmHg 74%
    16:00 +7°C° 0.1 mm 2 mps 774 mmHg 78%
    17:00 +6°C° 0.1 mm 2 mps 775 mmHg 83%
    18:00 +6°C° 0.1 mm 2 mps 775 mmHg 87%
    19:00 +6°C° 0.1 mm 2 mps 775 mmHg 87%
    20:00 +5°C° 0.1 mm 2 mps 775 mmHg 88%
    21:00 +5°C° 0.1 mm 2 mps 776 mmHg 88%
    22:00 +5°C° 0.1 mm 2 mps 776 mmHg 87%
    23:00 +4°C° 0.1 mm 2 mps 776 mmHg 86%
    Show more